Location: Mapua
(41.2500°S, 173.1000°E)
Time: 10:51:14
(UTC+12:00)

Tiangong 2 - Visible Passes

Search period start: 21 August 2017 00:00
Search period end: 31 August 2017 00:00
Orbit: 390 x 395 km, 42.8° (Epoch: 20 August)

Date Brightness Start Highest point End Pass type
(mag) Time Alt. Az. Time Alt. Az. Time Alt. Az.
21 Aug 2.5 19:52:07 10° WSW 19:54:21 40° W 19:54:21 40° W visible
22 Aug 1.1 18:55:04 10° WSW 18:58:20 81° S 19:00:06 25° E visible
22 Aug 4.6 20:32:11 10° W 20:32:29 12° W 20:32:29 12° W visible
23 Aug 1.8 19:34:58 10° W 19:38:08 47° NNW 19:38:18 46° NNW visible
24 Aug 1.3 18:37:51 10° WSW 18:41:07 70° NNW 18:44:10 11° ENE visible
24 Aug 4.1 20:15:28 10° WNW 20:16:34 15° WNW 20:16:34 15° WNW visible
25 Aug 3.0 19:17:56 10° W 19:20:45 27° NNW 19:22:33 17° NNE visible
27 Aug 3.9 19:01:18 10° WNW 19:03:15 15° NW 19:05:11 10° N visible
